Regional Weather Roundup
Issued by NWS State College, PA

Home | Current Version | Previous Version | Graphics & Text | Print | Product List | Glossary Off
Versions: 1 2 3 4 5 6 7 8 9 10 11 12 13 14 15 16 17 18 19 20 21 22 23 24 25 26 27 28 29 30 31 32 33 34 35 36 37 38 39 40 41 42 43 44 45 46 47 48 49 50

000
ASUS41 KCTP 242110
RWRCTP

REGIONAL WEATHER ROUNDUP
NATIONAL WEATHER SERVICE STATE COLLEGE PA
400 PM EST SAT FEB 24 2018

Note: "fair" indicates few or no clouds below 12,000 feet with no
significant weather and/or obstructions to visibility.

* = STATION THAT DOES NOT REPORT PRECIPITATION /E.G. RAIN...SNOW...ETC/
    THUNDER OR FOG.

PAZ002>004-007>009-013>016-020>023-029>032-242200-
WESTERN PENNSYLVANIA

CITY           SKY/WX    TMP DP  RH WIND       PRES   REMARKS
ERIE           FAIR      40  30  67 NE14      30.11F
MEADVILLE      CLOUDY    42  41  96 NE6       30.07S
FRANKLIN*      FAIR      44  41  89 E7        30.07S
NEW CASTLE     FAIR      48  46  93 E8        30.07F
BEAVER COUNTY  LGT RAIN  45  43  93 E8        30.04F
BUTLER*        CLOUDY    45  43  93 E12       30.05F
PITTSBURGH INT CLOUDY    47  45  93 E12       30.03F
PITTSBURGH     CLOUDY    46  43  89 E10       30.04F
INDIANA*       CLOUDY    46  45  93 SE9       30.11F
LATROBE        LGT RAIN  48  48 100 E12       30.06F
WASHINGTON CO* CLOUDY    47  45  93 E12       30.05F
$$

PAZ004>006-010>012-017>019-024>028-033>037-041-042-045-046-049>053-242200-
CENTRAL PENNSYLVANIA

CITY           SKY/WX    TMP DP  RH WIND       PRES   REMARKS
BRADFORD       PTSUNNY   43  41  93 CALM      30.08R
DUBOIS         CLOUDY    43  40  89 E8        30.07F
CLEARFIELD     LGT RAIN  43  43 100 SE5       30.10F
JOHNSTOWN      LGT RAIN  43  41  93 E8        30.08F FOG
ALTOONA        LGT RAIN  44  43  96 E5        30.12S FOG
STATE COLLEGE  DRIZZLE   43  43 100 NE5       30.14R
WILLIAMSPORT   LGT RAIN  45  43  93 CALM      30.15F FOG
SELINSGROVE    CLOUDY    45  42  89 NE5       30.16F
FT INDIANTOWN  LGT RAIN  47  47 100 NE5       30.15F
CAPITAL CITY   LGT RAIN  49  46  90 SE6       30.14F FOG
HARRISBURG     LGT RAIN  47  44  90 SE5       30.14F FOG
YORK           CLOUDY    47  47 100 E3        30.15R FOG
$$

PAZ038>040-043-044-047-048-054-055-060>062-067>071-242200-
EASTERN PENNSYLVANIA

CITY           SKY/WX    TMP DP  RH WIND       PRES   REMARKS
SCRANTON       LGT RAIN  43  41  93 CALM      30.18R
MOUNT POCONO   LGT RAIN  40  40 100 W5        30.15R
ALLENTOWN      RAIN      48  43  82 N5        30.18R
QUAKERTOWN*    CLOUDY    48  46  93 CALM      30.18R
READING        RAIN      48  47  96 NE7       30.15S FOG
LANCASTER      LGT RAIN  48  46  93 CALM      30.16R FOG
COATESVILLE    CLOUDY    46  45  93 CALM      30.18R
POTTSTOWN      LGT RAIN  47  47 100 NW5       30.20R FOG
BLUE BELL      CLOUDY    46  45  93 CALM      30.19R
DOYLESTOWN     LGT RAIN  47  46  97 N6        30.15R
WILLOW GROVE   NOT AVBL
NORTH PHILA    LGT RAIN  51  46  83 N8        30.17R
PHILADELPHIA   LGT RAIN  50  46  86 CALM      30.17R FOG
$$




USA.gov is the U.S. government's official web portal to all federal, state and local government web resources and services.